Date,TemperatureHighF,TemperatureAvgF,TemperatureLowF,DewpointHighF,DewpointAvgF,DewpointLowF,HumidityHigh,HumidityAvg,HumidityLow,PressureMaxIn,PressureMinIn,WindSpeedMaxMPH,WindSpeedAvgMPH,GustSpeedMaxMPH,PrecipitationSumIn
2013-1-1,20.1,7.5,1.1,5.4,-1.9,-7.9,88,66,33,30.48,30.18,12,2,15,0.00
2013-1-2,21.8,8.9,-0.9,1.2,-4.3,-9.0,76,56,36,30.61,30.25,14,2,19,0.00
2013-1-3,29.7,11.0,-2.1,-0.5,-6.4,-13.1,63,46,23,30.75,30.34,4,1,10,0.00
2013-1-4,23.8,12.8,8.7,2.6,-0.7,-3.7,65,54,39,30.46,30.28,2,1,4,0.00
2013-1-5,40.7,23.6,12.6,8.3,0.1,-5.4,51,36,18,30.45,29.99,10,2,18,0.00
2013-1-6,39.8,19.1,3.2,7.1,-0.2,-8.9,59,44,22,30.58,30.10,11,2,13,0.00
2013-1-7,40.4,21.9,7.0,7.5,2.2,-3.3,62,44,23,30.30,29.89,10,1,16,0.00
2013-1-8,40.7,29.4,18.0,17.5,8.9,-3.3,58,42,27,30.28,29.81,18,8,30,0.00
2013-1-9,26.9,19.1,12.7,10.3,6.3,3.0,65,57,48,30.45,30.21,15,6,17,0.00
2013-1-10,35.1,23.5,9.9,13.5,7.0,1.1,69,51,30,30.16,29.51,9,1,13,0.00
2013-1-11,23.7,16.3,5.7,18.4,3.4,-10.1,87,58,31,29.97,29.31,33,10,40,0.00
2013-1-12,14.6,2.9,-7.8,-4.6,-11.5,-16.2,68,51,32,30.27,29.96,17,3,22,0.00
2013-1-13,7.4,-3.2,-11.1,-4.1,-13.4,-19.8,76,61,48,30.43,30.20,8,2,12,0.00
2013-1-14,12.3,0.4,-9.8,-0.5,-9.6,-16.1,78,63,44,30.53,30.23,21,3,23,0.00
2013-1-15,23.7,11.4,-3.2,8.8,-2.7,-15.9,64,52,44,30.48,30.20,34,21,42,0.00
2013-1-16,42.7,26.2,11.8,19.7,12.5,3.8,72,57,38,30.44,30.09,28,9,35,0.00
2013-1-17,39.6,23.5,10.3,17.2,11.1,4.5,79,61,39,30.58,30.35,7,0,9,0.00
2013-1-18,43.8,26.7,11.4,11.4,5.6,0.9,73,44,20,30.50,30.14,21,4,25,0.00
2013-1-19,48.4,30.7,16.3,10.0,2.9,-1.9,46,32,17,30.40,30.11,16,4,23,0.00
2013-1-20,46.2,32.3,18.5,6.4,1.6,-5.4,43,28,15,30.25,30.03,14,4,23,0.00
2013-1-21,45.2,29.3,16.6,9.7,3.2,-3.2,55,34,19,30.31,30.11,12,3,20,0.00
2013-1-22,51.5,36.4,18.2,4.3,-4.0,-8.9,32,19,10,30.34,29.95,23,6,28,0.00
2013-1-23,56.9,35.2,15.5,3.5,-2.9,-9.0,34,21,8,30.42,29.96,24,4,31,0.00
2013-1-24,50.8,42.7,27.8,25.1,13.6,-1.6,57,33,14,30.00,29.81,36,14,48,0.00
2013-1-25,47.8,38.4,26.7,27.5,25.0,20.8,79,59,44,30.14,29.84,27,6,29,0.00
2013-1-26,43.9,35.3,27.6,32.1,25.3,18.4,95,69,46,29.98,29.57,22,3,33,0.07
2013-1-27,44.4,34.7,26.8,31.9,25.4,17.4,100,72,38,29.77,29.55,22,3,32,0.22
2013-1-28,33.8,27.7,19.7,30.4,21.9,13.2,93,79,57,29.67,29.47,16,3,33,0.17
2013-1-29,18.4,14.5,10.7,14.9,5.7,-2.3,87,68,54,29.80,29.60,19,10,31,0.00
2013-1-30,24.5,16.3,1.9,13.1,3.9,-8.8,65,57,48,30.18,30.02,26,13,34,0.00
2013-1-31,34.5,28.3,23.0,17.1,12.8,9.7,68,52,39,30.17,30.02,32,16,40,0.00
2013-2-1,36.2,29.8,19.3,15.9,12.8,8.4,63,49,38,30.20,29.99,32,13,37,0.00
2013-2-2,47.2,32.2,20.9,13.5,9.7,5.3,57,40,20,30.37,30.08,31,5,37,0.00
2013-2-3,43.2,29.7,16.1,13.1,6.8,-0.2,60,40,16,30.28,29.85,33,7,38,0.00
2013-2-4,45.5,31.6,17.7,9.2,6.1,1.8,52,35,19,30.07,29.82,26,9,35,0.00
2013-2-5,49.4,33.8,22.4,17.5,12.4,7.8,66,43,24,30.06,29.76,24,5,33,0.00
2013-2-6,44.9,32.3,19.7,20.3,16.0,13.1,76,54,28,29.95,29.71,23,6,28,0.00
2013-2-7,41.8,27.6,16.6,17.9,9.4,2.0,69,49,19,30.17,29.86,17,5,24,0.00
2013-2-8,40.1,27.4,11.6,22.5,13.7,4.0,82,58,37,30.15,29.55,25,6,33,0.00
2013-2-9,30.9,26.7,19.5,20.9,13.4,2.2,81,58,31,29.58,29.35,24,6,30,0.00
2013-2-10,28.2,20.8,14.1,15.2,3.9,-1.9,88,50,30,29.93,29.57,18,5,28,0.00
2013-2-11,19.8,12.8,3.7,14.5,7.9,-2.6,88,81,68,30.27,29.93,11,1,14,0.08
2013-2-12,28.7,15.4,1.4,9.2,1.4,-6.7,75,55,35,30.40,30.10,26,13,32,0.01
2013-2-13,33.7,25.2,16.3,14.8,9.5,4.1,62,51,43,30.17,29.95,28,15,34,0.00
2013-2-14,34.2,25.5,15.4,14.1,7.7,1.3,77,47,25,30.24,29.94,26,7,28,0.00
2013-2-15,31.0,22.8,12.6,11.2,7.0,-1.1,82,53,26,30.41,30.15,29,10,39,0.00
2013-2-16,46.2,32.7,19.3,13.4,8.4,4.9,54,37,22,30.39,29.92,23,11,39,0.00
2013-2-17,46.0,31.7,14.9,20.7,3.0,-5.3,78,34,13,29.99,29.51,33,10,40,0.00
2013-2-18,31.2,22.2,10.5,17.4,2.4,-5.1,77,45,21,30.19,29.49,26,10,36,0.00
2013-2-19,38.7,20.9,2.5,5.6,-1.5,-8.9,59,39,18,30.29,29.71,14,4,20,0.00
2013-2-20,35.5,23.6,13.9,23.7,13.4,3.0,92,67,41,29.77,29.44,12,1,23,0.00
2013-2-21,36.2,23.0,12.5,21.6,15.0,3.6,91,73,44,29.88,29.44,17,3,21,0.23
2013-2-22,28.3,16.7,5.2,14.9,4.9,-2.1,76,60,43,30.13,29.85,19,6,32,0.00
2013-2-23,33.5,21.2,8.6,21.6,9.1,-2.4,89,61,43,30.04,29.60,26,6,36,0.00
2013-2-24,23.3,16.6,3.7,17.5,9.9,-3.0,90,76,46,30.25,29.55,20,5,27,0.00
2013-2-25,33.2,18.8,1.2,11.1,4.0,-4.6,79,54,35,30.30,29.85,26,12,33,0.00
2013-2-26,24.9,18.1,12.0,15.9,6.4,1.7,77,60,45,30.20,29.73,22,12,30,0.00
2013-2-27,27.8,15.8,2.0,4.5,-1.0,-8.1,65,48,30,30.46,30.20,20,11,26,0.00
2013-2-28,32.2,20.4,6.5,13.9,3.6,-8.2,72,48,38,30.50,30.20,31,14,33,0.00
2013-3-1,37.6,27.5,13.6,19.9,14.6,5.8,73,59,45,30.45,30.24,33,13,39,0.00
2013-3-2,49.8,37.2,25.0,23.8,18.7,14.1,68,48,30,30.36,29.99,26,11,31,0.00
2013-3-3,47.5,37.6,28.1,24.8,18.2,13.1,75,47,27,30.00,29.54,31,11,46,0.00
2013-3-4,42.3,29.3,16.0,30.1,19.8,2.3,94,70,36,30.12,29.53,28,9,36,0.06
2013-3-5,49.1,28.3,10.1,11.6,2.4,-6.1,64,37,12,30.39,30.06,22,5,28,0.00
2013-3-6,53.2,35.4,17.6,18.3,10.6,4.5,61,38,18,30.14,29.74,20,4,30,0.00
2013-3-7,54.8,38.9,26.9,16.8,11.2,5.1,55,35,14,29.89,29.68,25,3,29,0.00
2013-3-8,48.5,33.3,22.1,29.7,20.1,11.9,95,62,29,29.92,29.39,21,2,31,0.00
2013-3-9,29.0,25.5,17.7,27.8,21.5,9.1,95,85,61,30.03,29.42,16,2,22,0.17
2013-3-10,35.3,24.0,14.9,16.7,10.3,4.6,65,56,43,30.19,29.97,38,21,40,0.00
2013-3-11,45.6,32.0,21.3,20.2,13.6,9.5,61,47,30,30.11,29.79,27,11,33,0.00
2013-3-12,48.5,38.3,29.1,21.9,18.0,14.9,68,45,26,30.10,29.85,19,7,30,0.00
2013-3-13,54.7,41.2,33.0,22.0,18.7,14.1,54,41,23,30.18,29.99,24,8,27,0.00
2013-3-14,59.9,45.6,31.1,21.9,14.6,4.1,55,32,11,30.28,29.98,20,6,29,0.00
2013-3-15,59.3,44.7,30.8,22.5,19.1,16.2,60,39,20,30.03,29.64,28,8,37,0.00
2013-3-16,42.8,37.0,32.4,34.9,26.7,18.4,90,67,38,29.81,29.63,26,3,26,0.04
2013-3-17,40.6,29.6,24.1,32.0,24.2,13.8,91,80,40,29.77,29.51,17,2,30,0.03
2013-3-18,37.0,29.2,22.6,20.3,12.8,7.2,77,51,32,29.92,29.63,29,7,31,0.00
2013-3-19,42.7,36.1,28.9,14.8,3.3,-9.1,55,28,11,29.97,29.83,17,10,26,0.00
2013-3-20,49.1,32.2,14.5,23.4,11.2,-4.3,55,42,23,30.28,29.60,25,6,32,0.00
2013-3-21,37.8,34.0,29.6,30.9,20.6,6.0,87,59,34,29.71,29.41,26,8,33,0.01
2013-3-22,40.9,29.4,16.8,20.3,8.0,-1.0,65,43,20,29.80,29.45,26,7,42,0.00
2013-3-23,25.2,19.3,13.4,15.6,10.8,5.8,85,70,52,30.09,29.54,15,6,23,0.00
2013-3-24,24.7,9.3,-5.1,4.9,-0.5,-9.7,93,66,38,30.42,30.12,19,4,26,0.05
2013-3-25,34.4,15.9,-0.1,7.5,-1.7,-9.0,65,48,20,30.48,30.16,20,9,23,0.00
2013-3-26,49.9,31.0,11.1,20.3,11.0,0.9,68,46,21,30.24,29.74,27,7,35,0.00
2013-3-27,53.0,40.0,27.9,23.9,18.0,12.9,72,44,21,29.94,29.72,17,5,24,0.00
2013-3-28,51.2,36.6,23.8,25.7,21.0,17.0,78,56,27,30.08,29.89,19,3,24,0.00
2013-3-29,55.4,42.0,25.7,26.6,23.5,19.2,76,50,27,30.11,29.89,23,9,33,0.00
2013-3-30,55.6,42.0,27.1,27.4,21.9,14.3,80,49,22,30.07,29.82,19,4,40,0.00
2013-3-31,58.0,44.2,23.8,25.5,16.0,1.6,76,38,10,30.06,29.77,15,5,24,0.00
2013-4-1,56.0,40.5,26.4,31.8,21.3,14.6,74,48,21,29.93,29.66,23,3,31,0.00
2013-4-2,47.0,33.0,26.2,29.7,25.7,20.4,95,77,37,29.96,29.71,20,2,28,0.00
2013-4-3,48.7,35.0,22.1,30.8,23.1,17.0,95,66,31,30.14,29.88,20,6,27,0.39
2013-4-4,57.6,43.3,28.2,27.0,22.3,18.3,71,46,22,30.11,29.82,16,4,20,0.00
2013-4-5,58.1,45.6,35.7,34.2,24.6,17.7,90,47,22,29.84,29.47,26,7,40,0.05
2013-4-6,54.4,43.9,34.0,33.5,22.4,16.4,92,45,24,29.81,29.58,25,7,31,0.01
2013-4-7,49.9,41.8,34.9,32.5,24.1,19.2,79,51,30,29.70,29.49,28,8,33,0.01
2013-4-8,56.6,41.0,28.8,32.9,26.8,16.9,87,62,22,29.61,29.12,32,6,38,0.00
2013-4-9,36.2,21.0,11.7,28.9,16.9,8.6,90,84,68,30.11,29.23,15,4,20,0.16
2013-4-10,34.4,20.6,3.2,20.5,11.2,-0.3,87,69,49,30.19,29.85,26,10,32,0.01
2013-4-11,46.1,32.7,22.5,26.1,17.1,9.1,70,54,31,29.89,29.63,18,8,30,0.00
2013-4-12,49.2,36.8,24.0,25.7,18.9,8.4,84,52,20,29.83,29.67,17,4,28,0.00
2013-4-13,54.9,40.8,22.6,32.8,20.4,14.8,92,49,24,29.83,29.23,40,10,45,0.10
2013-4-14,40.0,34.3,28.0,33.3,20.3,11.9,93,60,34,29.58,29.19,32,11,41,0.13
2013-4-15,43.8,32.2,23.8,33.1,23.7,12.5,89,71,53,29.71,29.33,25,6,30,0.02
2013-4-16,55.6,32.8,20.5,30.0,21.3,16.1,91,67,22,29.85,29.34,35,3,39,0.01
2013-4-17,40.4,26.9,13.8,27.7,20.9,8.7,92,79,39,30.00,29.47,22,4,32,0.05
2013-4-18,29.8,19.0,6.3,11.5,5.4,-0.8,86,58,28,30.31,29.93,40,12,40,0.00
2013-4-19,45.4,32.2,18.5,18.4,11.9,3.5,57,44,28,30.29,29.86,26,9,37,0.00
2013-4-20,46.8,34.7,25.1,26.0,20.1,16.9,74,56,37,29.88,29.71,19,5,22,0.00
2013-4-21,51.6,40.8,28.2,25.9,19.0,10.2,78,45,19,29.95,29.74,24,6,30,0.00
2013-4-22,53.0,40.9,22.7,33.0,24.7,17.2,86,57,24,29.94,29.57,24,9,49,0.00
2013-4-23,36.5,25.0,17.3,26.8,15.8,4.7,90,72,31,30.19,29.83,16,2,23,0.18
2013-4-24,45.7,29.9,16.4,18.0,10.6,5.7,70,47,22,30.20,30.06,23,6,31,0.00
2013-4-25,57.9,39.3,22.6,26.2,19.0,12.3,71,47,21,30.15,29.75,27,4,32,0.00
2013-4-26,56.9,44.5,30.9,25.9,18.2,11.7,64,38,17,30.04,29.73,18,4,25,0.00
2013-4-27,59.7,45.3,27.3,25.9,19.1,14.3,82,42,17,30.12,29.85,20,5,30,0.00
2013-4-28,64.8,50.6,33.1,24.0,20.3,17.2,55,33,18,29.91,29.58,19,9,29,0.00
2013-4-29,65.4,54.1,36.6,28.7,23.5,17.3,63,33,18,29.68,29.28,26,8,32,0.00
2013-4-30,67.7,56.8,41.5,27.6,21.4,16.7,43,26,16,29.39,29.23,30,7,46,0.00
2013-5-1,51.7,31.0,17.9,32.4,26.1,15.7,94,83,39,30.51,29.28,14,2,24,0.01
2013-5-2,42.7,27.2,10.0,22.3,14.8,7.2,92,64,26,30.74,30.38,18,4,25,0.32
2013-5-3,58.4,42.1,26.4,21.7,15.6,10.9,57,36,16,30.38,29.75,17,6,28,0.00
2013-5-4,55.5,40.3,27.9,34.0,23.9,18.3,90,55,25,30.03,29.76,16,2,27,0.04
2013-5-5,54.2,40.2,29.3,32.0,26.6,21.7,88,61,29,30.10,29.82,14,1,21,0.00
2013-5-6,50.9,40.4,31.1,36.1,30.1,21.9,93,67,50,29.92,29.73,14,1,20,0.27
2013-5-7,54.4,42.9,32.4,36.8,31.6,25.0,94,68,33,29.86,29.71,18,5,25,0.00
2013-5-8,44.5,36.5,31.6,35.2,32.0,30.1,95,84,60,30.03,29.72,10,1,13,0.64
2013-5-9,44.9,35.2,30.8,35.7,31.3,28.0,96,87,61,30.15,29.92,13,1,19,0.50
2013-5-10,52.2,40.7,27.5,32.9,29.1,23.9,91,66,40,30.15,30.02,18,2,32,0.00
2013-5-11,59.5,47.1,32.3,32.1,28.3,22.7,83,52,24,30.24,29.97,17,3,22,0.00
2013-5-12,66.3,53.2,39.1,35.2,30.8,27.0,74,46,24,30.06,29.82,19,6,25,0.00
2013-5-13,70.3,54.8,38.7,40.4,33.2,28.2,69,46,25,30.02,29.76,23,2,33,0.00
2013-5-14,70.5,54.6,38.9,39.7,35.4,31.4,77,51,25,29.85,29.58,24,5,37,0.00
2013-5-15,67.2,51.4,40.8,44.6,38.3,33.0,91,64,28,29.83,29.56,25,2,31,0.10
2013-5-16,69.3,52.9,36.3,41.0,33.8,26.9,92,56,21,29.83,29.49,20,3,28,0.01
2013-5-17,72.6,56.5,37.3,33.1,25.4,16.6,70,35,14,29.67,29.43,21,5,33,0.00
2013-5-18,62.0,49.7,39.7,33.3,26.7,21.0,63,42,23,29.69,29.50,24,6,39,0.00
2013-5-19,53.3,44.8,38.2,33.7,26.7,20.8,76,50,31,29.71,29.54,23,10,32,0.00
2013-5-20,56.0,44.3,32.1,33.5,28.7,24.4,77,55,31,29.82,29.62,30,10,35,0.03
2013-5-21,60.0,47.8,33.5,29.4,25.5,21.3,70,44,23,29.90,29.59,22,5,25,0.00
2013-5-22,67.6,51.1,32.6,35.8,29.6,23.7,74,47,19,29.72,29.53,21,3,35,0.01
2013-5-23,72.7,54.0,41.8,40.1,34.7,20.8,85,54,14,29.77,29.45,33,4,38,0.00
2013-5-24,72.9,57.6,41.8,42.5,30.0,18.1,89,44,13,29.78,29.54,23,4,34,0.00
2013-5-25,74.5,54.2,36.7,28.9,21.7,15.8,54,32,12,29.76,29.51,19,4,29,0.00
2013-5-26,74.1,55.3,38.7,27.7,23.0,17.0,52,31,12,29.70,29.44,19,4,28,0.00
2013-5-27,70.0,56.7,39.7,25.9,20.3,16.9,45,25,14,29.60,29.37,21,6,31,0.00
2013-5-28,69.0,54.2,34.1,28.6,22.4,16.5,55,31,15,29.57,29.24,27,7,36,0.00
2013-5-29,59.0,48.5,41.0,31.6,26.3,21.8,67,43,26,29.54,29.25,28,9,34,0.00
2013-5-30,57.9,49.8,39.4,27.7,21.6,16.3,60,35,21,29.58,29.42,33,12,43,0.00
2013-5-31,58.3,50.1,40.6,27.8,18.8,11.7,60,31,18,29.83,29.56,29,12,33,0.00
2013-6-1,68.8,53.1,39.2,29.4,22.4,14.1,50,31,17,29.92,29.67,25,7,30,0.00
2013-6-2,74.9,56.3,32.9,32.5,27.1,21.8,76,38,15,29.89,29.48,18,3,34,0.00
2013-6-3,75.0,59.2,38.9,33.6,27.9,23.5,55,33,16,29.60,29.41,30,6,35,0.00
2013-6-4,72.3,58.0,40.5,36.6,31.6,28.2,64,39,23,29.68,29.50,29,5,40,0.00
2013-6-5,73.2,56.2,40.9,44.0,35.6,21.9,82,54,15,29.81,29.52,23,4,34,0.00
2013-6-6,74.8,56.9,36.9,41.6,34.0,22.7,85,49,15,29.89,29.58,20,4,31,0.00
2013-6-7,70.9,55.4,41.3,41.1,35.7,30.5,76,50,27,29.83,29.49,24,4,29,0.00
2013-6-8,76.2,60.7,41.4,38.1,31.8,23.2,68,38,15,29.60,29.43,22,6,30,0.00
2013-6-9,82.5,63.3,40.2,36.1,31.4,23.9,77,37,12,29.74,29.54,26,5,29,0.00
2013-6-10,86.4,66.4,44.1,36.8,31.6,28.1,55,30,13,29.67,29.41,29,4,33,0.00
2013-6-11,80.6,66.5,45.6,34.3,26.5,19.8,47,25,11,29.63,29.42,27,7,38,0.00
2013-6-12,83.3,66.9,45.3,33.5,26.7,21.9,41,23,14,29.79,29.52,22,7,27,0.00
2013-6-13,81.2,65.3,46.3,40.1,30.7,22.7,47,29,15,29.71,29.52,29,5,53,0.00
2013-6-14,80.7,66.4,50.5,39.8,31.8,20.3,56,31,12,29.64,29.40,21,4,30,0.00
2013-6-15,76.4,57.7,40.9,36.0,30.5,24.5,67,40,16,29.71,29.53,27,4,38,0.00
2013-6-16,71.0,59.8,47.2,43.3,34.8,28.6,65,40,26,29.86,29.60,28,8,41,0.00
2013-6-17,78.9,58.1,40.5,41.1,35.6,25.5,76,48,15,29.95,29.62,18,5,29,0.00
2013-6-18,75.7,58.5,40.3,43.6,35.4,27.8,83,46,20,29.88,29.50,36,4,40,0.00
2013-6-19,81.2,61.7,39.1,40.8,27.3,14.4,79,35,9,29.71,29.36,20,4,32,0.00
2013-6-20,81.0,63.7,44.7,28.4,21.0,13.5,35,20,12,29.55,29.39,22,4,27,0.00
2013-6-21,80.9,63.5,41.1,27.6,23.1,18.5,41,23,12,29.64,29.40,21,4,33,0.00
2013-6-22,78.3,63.7,43.9,28.0,23.1,19.2,38,23,13,29.61,29.39,21,5,36,0.00
2013-6-23,76.6,61.4,41.8,30.8,25.6,19.5,42,27,15,29.64,29.41,22,4,30,0.00
2013-6-24,77.0,60.7,40.6,42.0,26.4,20.6,53,31,13,29.65,29.44,23,5,35,0.00
2013-6-25,78.7,66.7,52.0,33.0,27.2,21.3,32,23,19,29.64,29.40,25,8,31,0.00
2013-6-26,85.6,68.0,45.5,36.5,32.5,27.8,50,29,14,29.76,29.53,17,3,19,0.00
2013-6-27,89.8,72.5,52.9,40.7,34.0,30.9,45,27,13,29.77,29.59,27,5,34,0.00
2013-6-28,86.6,68.8,51.8,51.3,40.5,34.7,63,38,17,29.84,29.62,15,3,26,0.00
2013-6-29,78.2,62.1,49.0,51.1,44.4,41.0,83,55,28,29.95,29.65,14,2,29,0.03
2013-6-30,80.2,59.5,45.4,51.2,44.8,37.7,91,64,23,29.92,29.64,30,4,33,0.11
2013-7-1,76.5,58.9,43.0,54.0,44.3,38.1,91,63,26,30.03,29.73,15,2,22,0.04
2013-7-2,79.8,60.4,45.0,49.9,43.7,30.7,92,61,18,29.93,29.64,24,3,27,0.03
2013-7-3,79.8,60.0,42.8,45.2,41.6,32.4,89,57,19,29.84,29.55,25,3,30,0.01
2013-7-4,81.6,64.8,48.2,44.8,40.2,37.1,73,44,21,29.73,29.43,18,3,24,0.00
2013-7-5,81.1,66.0,51.7,53.9,45.4,40.2,86,51,27,29.55,29.30,17,4,30,0.07
2013-7-6,77.3,64.3,53.5,52.8,48.2,44.7,87,59,33,29.60,29.46,12,2,22,0.06
2013-7-7,80.1,63.8,53.4,55.8,48.7,42.8,88,61,29,29.70,29.53,27,3,36,0.12
2013-7-8,81.4,62.1,47.6,52.8,45.3,32.0,92,62,18,29.86,29.63,23,3,34,0.20
2013-7-9,83.1,67.6,49.7,44.9,40.4,36.2,67,40,20,29.83,29.67,18,2,21,0.00
2013-7-10,79.9,66.0,54.0,53.1,46.3,40.5,71,51,27,29.80,29.61,20,3,32,0.05
2013-7-11,85.0,65.8,50.5,52.6,47.3,39.5,92,57,22,29.78,29.46,20,2,32,0.00
2013-7-12,78.4,65.8,55.3,52.6,46.9,43.6,68,51,34,29.64,29.43,33,5,39,0.01
2013-7-13,78.8,66.7,55.2,50.5,48.6,45.2,77,54,32,29.73,29.54,27,4,34,0.00
2013-7-14,78.9,61.6,50.5,56.2,49.0,43.6,94,68,30,29.90,29.58,20,4,27,0.34
2013-7-15,65.9,55.5,48.7,56.0,51.7,46.8,95,88,65,29.89,29.72,16,1,23,0.20
2013-7-16,72.3,58.4,48.6,51.7,47.8,44.6,93,71,41,29.92,29.71,15,2,22,0.15
2013-7-17,78.0,61.7,45.5,52.2,47.0,42.8,92,62,32,29.95,29.71,12,2,19,0.00
2013-7-18,78.4,59.2,51.5,56.6,48.9,44.0,93,71,36,29.95,29.61,23,3,31,0.44
2013-7-19,73.5,58.6,49.7,54.1,51.0,47.5,95,78,44,29.93,29.66,13,1,18,0.00
2013-7-20,81.5,64.2,47.6,54.7,45.5,33.5,93,59,18,29.83,29.45,18,4,24,0.01
2013-7-21,80.8,64.1,50.3,52.2,45.4,24.6,88,57,13,29.63,29.46,13,1,17,0.00
2013-7-22,79.4,64.7,49.8,51.0,42.4,37.4,73,47,26,29.73,29.54,15,3,21,0.00
2013-7-23,84.4,66.6,46.6,43.1,37.1,29.6,70,38,14,29.75,29.56,11,2,21,0.00
2013-7-24,69.9,61.8,54.8,54.6,46.8,40.4,76,58,40,29.87,29.61,26,2,36,0.01
2013-7-25,76.1,60.0,48.3,51.9,47.4,40.4,89,67,30,29.92,29.66,20,3,25,0.06
2013-7-26,78.0,60.6,45.0,51.7,47.0,42.2,91,65,28,30.05,29.72,13,2,22,0.01
2013-7-27,73.5,58.5,47.0,53.0,47.9,41.7,93,70,35,29.85,29.62,19,4,31,0.14
2013-7-28,66.5,57.4,52.2,55.3,50.8,46.7,95,80,49,29.71,29.55,19,2,23,0.25
2013-7-29,73.1,60.6,51.4,49.4,45.9,40.0,87,61,33,29.83,29.61,26,6,36,0.02
2013-7-30,75.6,61.2,44.7,44.7,41.8,39.3,85,53,29,29.98,29.81,19,4,27,0.00
2013-7-31,79.5,63.9,45.0,44.0,40.1,36.6,75,45,24,30.00,29.70,18,2,21,0.00
2013-8-1,68.7,59.1,47.9,49.3,44.7,40.0,83,60,44,29.91,29.63,25,5,33,0.00
2013-8-2,79.9,66.9,53.9,47.2,44.4,41.5,69,47,27,29.74,29.50,19,5,27,0.00
2013-8-3,78.6,63.3,51.3,50.4,45.1,40.1,78,54,27,29.80,29.61,20,3,26,0.00
2013-8-4,80.0,62.2,47.0,50.7,45.8,41.2,89,59,27,29.90,29.64,21,5,33,0.03
2013-8-5,76.5,59.0,47.2,49.3,45.2,39.4,86,63,29,29.87,29.65,17,3,25,0.00
2013-8-6,76.4,58.6,47.2,49.7,45.4,35.4,89,66,25,29.88,29.62,28,4,33,0.03
2013-8-7,61.1,52.5,48.6,49.5,46.4,42.7,91,81,51,29.92,29.65,15,3,21,0.15
2013-8-8,70.2,56.1,47.0,46.7,42.0,35.5,89,62,29,29.90,29.66,16,3,25,0.02
2013-8-9,69.8,53.7,41.4,47.4,42.6,37.8,89,68,37,29.99,29.75,26,3,36,0.02
2013-8-10,72.4,57.1,40.5,46.6,40.7,33.3,92,60,25,30.06,29.80,25,6,34,0.01
2013-8-11,73.2,57.7,43.5,49.3,41.5,35.6,84,58,27,29.97,29.75,12,1,22,0.00
2013-8-12,73.0,55.7,43.6,48.0,42.1,37.9,86,63,29,29.92,29.76,26,2,40,0.02
2013-8-13,72.8,57.0,40.0,45.9,39.4,31.6,87,57,22,30.02,29.80,27,4,35,0.00
2013-8-14,74.2,57.4,41.8,42.9,37.0,26.3,87,53,18,29.95,29.75,29,6,37,0.00
2013-8-15,79.5,61.0,40.8,37.1,31.4,24.9,70,38,14,29.94,29.73,17,4,31,0.00
2013-8-16,79.2,62.8,43.2,38.5,33.1,29.5,64,36,17,29.96,29.72,12,2,25,0.00
2013-8-17,82.1,64.6,46.2,38.5,33.3,30.5,58,34,16,29.91,29.64,10,2,18,0.00
2013-8-18,80.0,62.1,47.2,48.7,39.4,32.7,61,45,22,29.90,29.62,18,4,32,0.00
2013-8-19,82.2,64.3,45.9,45.1,41.6,36.5,78,48,21,29.89,29.65,21,3,26,0.00
2013-8-20,82.1,65.7,47.7,44.4,40.7,37.4,71,44,21,29.82,29.57,18,5,31,0.00
2013-8-21,80.3,63.8,51.0,48.8,43.7,38.6,66,50,24,29.83,29.56,23,4,32,0.03
2013-8-22,81.1,64.5,50.4,51.1,45.2,41.0,74,53,26,29.89,29.63,20,3,27,0.00
2013-8-23,75.3,60.5,48.2,51.3,48.2,43.7,91,66,36,29.81,29.57,18,3,30,0.05
2013-8-24,76.4,61.1,48.6,50.0,44.8,41.2,80,57,30,29.80,29.56,14,3,25,0.00
2013-8-25,71.5,60.1,50.1,56.3,50.5,45.2,92,72,43,29.87,29.72,12,1,19,0.09
2013-8-26,79.3,64.0,51.0,52.4,49.3,45.9,89,62,31,29.90,29.65,22,5,28,0.01
2013-8-27,82.6,66.1,48.1,49.6,45.2,37.8,86,52,21,29.88,29.57,11,3,25,0.00
2013-8-28,84.1,66.8,50.1,48.5,44.5,36.0,79,49,18,29.75,29.55,16,3,25,0.00
2013-8-29,85.0,66.1,48.0,48.9,44.1,37.8,78,49,20,29.90,29.65,16,3,23,0.00
2013-8-30,74.0,65.1,56.8,49.2,46.6,42.7,72,53,34,29.83,29.66,25,6,35,0.00
2013-8-31,78.1,62.4,53.5,54.3,48.7,44.2,89,63,31,29.80,29.59,18,3,24,0.06
2013-9-1,76.5,60.1,48.7,53.2,49.0,40.5,93,71,29,29.93,29.62,18,2,22,0.22
2013-9-2,79.1,61.9,48.2,52.7,47.6,39.7,94,65,27,29.93,29.65,12,3,21,0.00
2013-9-3,80.3,63.6,49.4,52.9,47.2,39.2,83,59,26,29.86,29.65,18,4,26,0.00
2013-9-4,81.5,61.5,51.8,54.9,49.2,43.9,89,68,30,30.00,29.69,18,2,24,0.12
2013-9-5,82.3,64.4,47.2,51.0,45.7,37.6,92,57,21,30.05,29.70,10,1,15,0.00
2013-9-6,84.2,65.8,49.9,46.7,42.6,37.3,73,46,20,29.87,29.61,21,5,32,0.00
2013-9-7,81.8,65.2,47.9,45.9,41.9,36.7,75,46,23,29.84,29.57,16,3,21,0.00
2013-9-8,78.6,64.0,49.2,48.6,43.1,35.6,75,49,23,29.74,29.44,21,4,27,0.02
2013-9-9,75.1,61.2,46.5,49.7,45.0,41.3,85,58,32,29.67,29.44,16,4,23,0.02
2013-9-10,67.6,56.9,52.3,52.8,50.3,45.8,95,81,49,29.83,29.54,16,2,26,0.15
2013-9-11,66.1,56.0,52.0,53.9,51.5,50.0,95,86,58,29.87,29.70,12,1,18,0.15
2013-9-12,63.8,55.6,51.5,55.3,51.6,48.7,95,87,64,29.91,29.72,8,1,14,0.43
2013-9-13,62.0,54.3,48.2,51.9,49.5,45.0,96,85,63,29.78,29.58,16,2,19,0.21
2013-9-14,66.3,54.2,46.3,49.2,47.2,43.4,95,79,50,29.74,29.52,12,2,23,0.02
2013-9-15,63.6,50.8,42.5,47.6,44.2,39.7,93,79,49,29.98,29.69,10,1,23,0.14
2013-9-16,65.3,52.4,45.0,51.2,46.0,41.8,95,80,50,29.99,29.74,12,1,22,0.03
2013-9-17,70.8,54.7,40.1,47.2,43.0,37.4,92,68,31,29.97,29.56,15,2,20,0.00
2013-9-18,67.5,52.3,45.0,51.1,44.5,36.7,92,76,36,29.75,29.51,22,4,42,0.09
2013-9-19,67.5,50.8,39.7,43.8,36.1,24.8,95,64,22,29.85,29.65,19,3,26,0.00
2013-9-20,70.3,52.9,38.9,41.1,34.6,27.5,90,55,21,29.95,29.68,12,3,20,0.00
2013-9-21,71.9,54.5,37.1,43.1,36.0,31.5,84,53,26,29.91,29.52,19,2,34,0.00
2013-9-22,59.8,48.1,41.8,45.6,40.6,36.3,93,76,56,29.61,29.35,20,2,27,0.32
2013-9-23,55.2,46.7,38.5,37.6,31.1,25.4,83,56,33,29.98,29.33,25,8,36,0.00
2013-9-24,68.3,48.7,29.6,31.9,27.0,16.8,80,49,14,30.12,29.72,23,2,26,0.00
2013-9-25,70.8,53.1,33.0,35.8,29.4,24.5,82,46,19,29.74,29.22,27,5,43,0.00
2013-9-26,68.4,57.8,45.1,29.5,24.6,21.0,44,28,18,29.44,29.19,25,9,33,0.00
2013-9-27,52.7,46.2,33.4,38.5,28.3,18.0,67,50,41,29.86,29.25,31,10,40,0.00
2013-9-28,60.3,45.1,33.0,27.3,20.8,13.2,69,39,21,30.08,29.84,25,8,32,0.00
2013-9-29,64.7,50.3,33.2,24.4,21.4,16.5,61,35,19,30.00,29.67,33,10,36,0.00
2013-9-30,71.4,59.0,45.8,34.3,26.3,20.0,42,29,21,29.77,29.43,24,8,34,0.00
2013-10-1,71.1,54.2,35.4,34.1,29.5,24.5,64,41,23,29.83,29.56,14,4,23,0.00
2013-10-2,68.7,51.4,35.2,31.1,25.5,20.6,66,40,16,29.83,29.55,15,3,20,0.00
2013-10-3,68.1,51.7,34.4,28.0,24.9,22.8,64,38,19,29.69,29.24,26,5,33,0.00
2013-10-4,52.6,36.5,27.1,28.7,17.3,9.7,68,46,34,30.14,29.19,23,12,33,0.00
2013-10-5,49.2,35.7,25.1,16.1,12.7,9.5,62,41,20,30.24,30.04,35,16,38,0.00
2013-10-6,64.3,47.1,32.3,27.9,20.5,8.3,53,36,23,30.25,29.91,26,12,30,0.00
2013-10-7,70.8,49.4,30.1,28.4,22.9,19.1,69,40,16,30.12,29.73,12,2,18,0.00
2013-10-8,67.4,50.4,33.6,27.3,23.9,20.0,60,38,17,29.82,29.46,20,4,29,0.00
2013-10-9,61.4,47.1,31.0,29.2,23.6,16.4,71,42,24,29.76,29.54,23,4,30,0.00
2013-10-10,50.3,43.8,37.4,34.6,28.1,19.2,75,54,35,29.61,29.32,27,6,34,0.01
2013-10-11,38.6,37.7,36.5,24.7,23.0,21.6,62,55,52,29.58,29.46,27,14,34,0.00
2013-10-12,54.1,39.2,24.2,30.1,24.0,17.7,80,56,34,30.12,29.84,13,3,23,0.00
2013-10-13,60.4,44.0,27.2,34.1,29.6,22.9,87,60,29,30.05,29.62,19,4,32,0.00
2013-10-14,47.2,39.3,30.4,33.7,26.0,18.9,89,60,32,30.00,29.50,20,6,37,0.03
2013-10-15,40.2,30.6,21.7,27.1,23.7,16.8,93,76,53,30.18,29.95,12,1,16,0.01
2013-10-16,44.0,33.5,23.7,29.4,20.2,13.7,93,63,31,30.13,29.90,26,7,28,0.03
2013-10-17,50.0,37.1,23.2,19.6,14.7,11.5,61,41,23,30.10,29.76,20,7,32,0.00
2013-10-18,41.9,33.8,26.9,25.7,14.4,7.7,83,47,27,30.12,29.77,28,12,34,0.00
2013-10-19,54.2,40.1,25.3,19.1,15.0,9.3,53,37,22,30.14,29.78,25,9,31,0.00
2013-10-20,48.2,39.8,30.5,19.5,15.9,13.2,49,38,31,29.86,29.67,19,2,25,0.00
2013-10-21,52.6,38.5,26.4,27.7,19.6,12.7,88,52,20,30.09,29.88,17,8,29,0.00
2013-10-22,60.6,43.2,26.5,24.2,20.3,15.2,65,42,23,30.20,29.86,16,3,21,0.00
2013-10-23,62.9,44.4,28.4,22.3,18.6,12.3,63,38,18,30.12,29.82,14,2,20,0.00
2013-10-24,63.0,43.4,26.1,27.6,19.7,13.1,68,42,20,30.17,29.89,7,1,18,0.00
2013-10-25,57.6,41.4,26.1,33.5,25.1,18.6,77,55,30,30.14,29.92,17,2,24,0.00
2013-10-26,57.9,43.3,29.4,30.2,24.6,18.1,76,51,26,30.22,29.94,10,2,15,0.00
2013-10-27,57.2,41.5,26.9,24.7,20.1,17.3,68,44,24,30.08,29.68,24,3,30,0.00
2013-10-28,57.4,41.5,28.0,30.1,21.2,16.7,74,48,21,29.85,29.55,24,3,32,0.00
2013-10-29,49.6,38.7,27.5,32.0,22.6,18.7,87,54,30,29.82,29.55,17,4,29,0.01
2013-10-30,42.6,34.7,25.8,29.1,15.8,11.9,91,47,30,29.81,29.60,26,9,32,0.00
2013-10-31,39.7,32.7,24.8,18.2,15.6,12.3,68,50,36,29.94,29.71,33,9,46,0.00
2013-11-1,46.3,35.2,25.2,22.9,17.2,12.8,73,49,26,30.17,29.90,35,10,37,0.00
2013-11-2,60.7,38.0,19.0,15.7,9.9,3.8,63,36,10,30.32,29.81,21,4,28,0.00
2013-11-3,53.5,37.2,24.9,27.8,15.4,6.4,84,42,26,29.84,29.40,25,6,35,0.00
2013-11-4,44.8,34.5,25.7,22.6,16.4,12.0,65,49,26,29.82,29.54,13,3,26,0.00
2013-11-5,33.5,25.5,18.4,22.5,11.7,-0.7,92,59,32,30.25,29.73,18,10,32,0.04
2013-11-6,40.9,29.2,15.6,16.3,9.1,-0.6,55,43,34,30.42,30.20,26,12,40,0.01
2013-11-7,54.4,36.9,20.0,20.2,15.6,10.5,68,44,23,30.49,29.93,19,3,30,0.00
2013-11-8,54.0,44.3,32.7,18.0,15.3,11.7,48,31,22,29.93,29.69,38,10,40,0.00
2013-11-9,58.4,42.3,29.2,18.8,16.3,13.8,54,36,21,30.16,29.81,17,4,27,0.00
2013-11-10,57.3,40.9,25.6,18.0,15.8,12.5,59,38,21,30.22,29.97,18,5,28,0.00
2013-11-11,56.9,41.4,27.1,19.5,15.8,12.8,58,37,19,30.35,29.96,20,7,22,0.00
2013-11-12,51.6,32.1,21.9,25.1,18.0,9.9,93,60,26,30.65,30.30,5,0,7,0.00
2013-11-13,55.2,37.7,20.3,17.0,13.3,8.7,61,39,20,30.48,29.83,18,3,22,0.00
2013-11-14,51.1,40.0,24.5,23.7,15.1,2.6,68,39,18,29.99,29.66,19,6,25,0.00
2013-11-15,48.3,34.9,21.7,30.2,19.9,9.3,95,59,26,29.74,29.32,29,6,33,0.00
2013-11-16,39.1,32.6,26.5,28.8,22.6,16.6,94,68,42,29.48,29.28,42,11,52,0.08
2013-11-17,40.3,32.6,25.4,24.8,19.6,14.7,93,61,42,30.09,29.49,34,12,43,0.00
2013-11-18,50.9,32.7,19.9,20.2,15.9,10.1,71,52,25,30.26,29.96,23,1,28,0.00
2013-11-19,47.2,35.4,20.2,25.4,20.0,12.1,73,55,37,30.08,29.60,33,9,38,0.00
2013-11-20,48.2,39.7,31.5,29.6,23.0,19.2,92,52,33,29.71,29.52,25,9,32,0.00
2013-11-21,31.4,27.0,15.2,30.1,25.4,12.9,95,93,90,30.42,29.67,9,1,11,0.11
2013-11-22,23.5,19.0,12.8,21.7,16.7,10.2,93,90,87,30.65,30.42,4,0,7,0.00
2013-11-23,25.1,21.4,18.8,22.3,19.2,16.9,93,91,87,30.61,30.38,1,0,4,0.00
2013-11-24,33.9,22.4,10.3,29.3,18.9,7.8,94,87,72,30.41,29.83,25,3,31,0.01
2013-11-25,35.6,26.5,13.4,25.5,17.9,10.0,89,70,54,30.42,29.84,26,7,30,0.06
2013-11-26,33.6,22.0,12.1,21.3,14.4,7.6,90,73,55,30.58,30.35,20,2,25,0.03
2013-11-27,38.1,23.3,12.6,19.5,13.5,7.6,83,67,41,30.52,30.16,6,1,7,0.07
2013-11-28,44.2,25.8,14.2,21.2,14.1,6.5,80,62,38,30.40,30.07,4,1,6,0.00
2013-11-29,44.2,29.3,14.4,21.5,14.7,6.8,76,55,35,30.42,30.15,15,1,20,0.00
2013-11-30,42.5,26.7,16.6,19.3,11.7,6.8,73,54,35,30.41,30.13,15,2,20,0.00
2013-12-1,42.0,27.2,14.9,21.5,12.0,5.4,68,54,34,30.36,29.79,40,11,46,0.00
2013-12-2,42.2,37.8,34.5,22.9,20.6,16.6,59,50,39,29.82,29.47,41,18,42,0.00
2013-12-3,38.4,30.9,26.9,27.3,22.1,15.6,94,73,39,29.51,29.35,24,3,30,0.05
2013-12-4,28.6,17.9,2.1,27.4,15.3,-3.4,95,89,73,30.04,29.25,26,5,33,0.00
2013-12-5,14.2,-0.4,-13.9,3.2,-6.2,-18.5,92,76,57,30.35,29.98,8,1,17,0.00
2013-12-6,14.1,1.2,-11.8,3.1,-6.9,-16.5,92,69,45,30.53,30.19,20,3,31,0.00
2013-12-7,16.9,10.4,-0.8,11.7,4.5,-8.9,89,77,61,30.39,29.72,8,1,9,0.00
2013-12-8,16.8,12.5,1.3,12.2,0.5,-11.8,89,59,39,30.13,29.67,23,9,36,0.00
2013-12-9,11.2,3.8,-5.6,-2.3,-9.4,-15.0,65,54,41,30.65,30.08,30,12,56,0.00
2013-12-10,29.4,19.6,-3.5,13.0,4.7,-13.3,64,52,44,30.66,30.10,37,16,49,0.00
2013-12-11,34.6,21.6,10.0,11.9,5.7,-0.3,72,51,30,30.62,30.17,23,4,28,0.01
2013-12-12,40.9,23.5,9.0,14.0,3.9,-3.6,59,44,26,30.64,30.03,18,4,29,0.01
2013-12-13,36.5,27.9,19.7,16.0,10.8,3.2,57,48,38,30.06,29.79,31,13,31,0.00
2013-12-14,32.1,24.2,15.5,14.0,10.1,5.8,66,55,42,30.42,30.05,33,16,36,0.00
2013-12-15,40.6,31.1,19.4,20.4,14.9,9.2,65,51,39,30.38,30.11,31,9,34,0.00
2013-12-16,46.7,37.9,25.1,21.2,15.1,8.6,56,39,27,30.25,29.98,26,10,34,0.00
2013-12-17,45.0,29.8,17.7,19.9,12.6,6.6,61,49,29,30.51,30.18,10,1,11,0.00
2013-12-18,50.1,38.0,20.1,17.5,11.9,8.9,63,36,21,30.20,29.52,33,10,39,0.00
2013-12-19,43.3,35.0,25.4,23.4,17.7,14.3,70,50,32,29.64,29.33,22,3,33,0.00
2013-12-20,32.5,26.0,18.8,24.3,18.1,11.4,85,72,56,29.68,29.54,15,3,21,0.00
2013-12-21,28.4,20.9,10.3,13.8,9.1,3.1,72,60,50,29.86,29.49,23,11,31,0.00
2013-12-22,28.6,19.9,10.9,9.9,5.3,-0.2,67,53,40,30.19,29.87,27,9,40,0.00
2013-12-23,34.4,25.9,17.6,16.6,11.1,5.2,67,53,39,30.40,30.13,27,9,33,0.00
2013-12-24,37.9,27.5,14.5,26.1,15.4,3.5,81,60,48,30.32,29.98,33,14,35,0.00
2013-12-25,33.4,21.2,10.5,10.5,3.7,-2.9,62,47,33,30.57,30.32,25,8,33,0.00
2013-12-26,40.3,27.1,14.6,18.6,9.7,1.5,61,48,33,30.50,30.23,24,13,31,0.00
2013-12-27,45.0,28.4,17.5,21.5,14.8,7.4,72,57,37,30.45,30.13,8,1,12,0.00
2013-12-28,39.5,28.1,17.3,24.3,18.1,10.6,91,67,47,30.15,29.82,14,2,17,0.00
2013-12-29,27.4,21.4,11.9,20.9,13.0,1.8,92,73,37,30.21,29.95,20,3,27,0.11
2013-12-30,32.8,23.8,13.0,13.4,8.6,2.7,68,52,40,30.37,30.05,21,7,26,0.01
2013-12-31,40.2,31.1,13.1,21.8,15.3,3.0,67,52,40,30.28,29.85,35,11,43,0.00
2014-1-1,33.7,29.2,19.7,24.8,13.6,4.4,87,53,35,30.31,29.77,28,14,35,0.00
2014-1-2,41.2,29.6,16.3,14.9,7.5,0.6,54,40,24,30.41,30.00,19,4,30,0.00